Location: Oshawa
(43.9000°N, 78.8670°W)
Time: 05:34:53
(UTC-04:00)

SPOT 5 - Pass Details

Date: 21 June 2018
Orbit: 623 x 815 km, 98.3° (Epoch: 20 September)

Event Time Altitude Azimuth Distance (km) Brightness Sun altitude
Exits shadow 22:08:28 13° 139° (SE) 2,088 4.6 -10.0°
Maximum altitude 22:12:46 46° 69° (ENE) 1,040 3.5 -10.5°
Drops below altitude 10° 22:17:48 10° 358° (N) 2,387 6.4 -11.1°
Sets 22:20:15 0° 353° (N) 3,337 7.3 -11.4°
